Lebanon, NH

7:32 PM EDT on April 27, 2017 (GMT -0400)
Lebanon Municipal

Weather History for KLEB - January, 2013

Change the Weather History Date:

Thursday, January 17, 2013

  Actual Average Record
Temperature  
Mean Temperature 26 °F -  
Max Temperature 36 °F 26 °F 52 °F (1973)
Min Temperature 14 °F 3 °F -25 °F (1971)
Degree Days  
Heating Degree Days 40    
Moisture  
Dew Point 15 °F    
Average Humidity 68    
Maximum Humidity 91    
Minimum Humidity 41    
Precipitation  
Precipitation 0.00 in - - ()
Sea Level Pressure  
Sea Level Pressure 29.98 in    
Wind  
Wind Speed 5 mph (North)    
Max Wind Speed 18 mph    
Max Gust Speed 25 mph    
Visibility 8 miles    
Events Snow    
Averages and records for this station are not official NWS values.
T = Trace of Precipitation, MM = Missing Value Source: NWS Daily Summary

Daily Weather History Graph

Daily Weather History Graph

Search for Another Location

Airport or City:

Trip Planner

Search our weather history database for the weather conditions in past years. The results will help you decide how hot, cold, wet, or windy it might be!

Date:

Astronomy

Jan. 17, 2013 Rise Set
Actual Time 7:18 AM EST 4:40 PM EST
Civil Twilight 6:46 AM EST 5:12 PM EST
Nautical Twilight 6:11 AM EST 5:47 PM EST
Astronomical Twilight 5:37 AM EST 6:22 PM EST
Moon 10:10 AM EST (1/17) 11:44 PM EST (1/17)
Length of Visible Light 10h 25m
Length of Day
9h 22m
Waxing Crescent, 37% of the Moon is Illuminated
Jan 17
Waxing Crescent
Jan 18
First Quarter
Jan 26
Full
Feb 3
Last Quarter
Feb 10
New

Hourly Weather History & Observations

Time (EST) Temp. Windchill Dew Point Humidity Pressure Visibility Wind Dir Wind Speed Gust Speed Precip Events Conditions
12:53 AM 16.0 °F - 12.9 °F 88% 29.82 in 10.0 mi Calm Calm - N/A   Clear
1:53 AM 16.0 °F - 12.0 °F 84% 29.83 in 10.0 mi Calm Calm - N/A   Clear
2:53 AM 19.0 °F 12.3 °F 15.1 °F 85% 29.81 in 10.0 mi SSE 4.6 mph - N/A   Clear
4:53 AM 24.1 °F - 21.9 °F 91% 29.82 in 8.0 mi Calm Calm - N/A   Overcast
5:53 AM 26.1 °F - 23.0 °F 88% 29.83 in 9.0 mi Calm Calm - N/A   Overcast
7:53 AM 28.9 °F 23.9 °F 26.1 °F 89% 29.88 in 8.0 mi SSE 4.6 mph - N/A   Overcast
8:53 AM 30.9 °F - 28.0 °F 89% 29.90 in 7.0 mi Calm Calm - N/A   Overcast
9:53 AM 34.0 °F 31.0 °F 28.0 °F 79% 29.91 in 10.0 mi South 3.5 mph - N/A   Mostly Cloudy
10:53 AM 36.0 °F 29.0 °F 26.1 °F 67% 29.92 in 10.0 mi West 9.2 mph 17.3 mph N/A   Mostly Cloudy
11:45 AM 33.8 °F 23.9 °F 26.6 °F 75% 29.92 in 2.0 mi NNW 15.0 mph 24.2 mph 0.00 in Snow Light Snow
11:53 AM 33.1 °F 21.9 °F 26.1 °F 75% 29.96 in 1.8 mi North 18.4 mph 25.3 mph 0.00 in Snow Light Snow
12:06 PM 32.0 °F 23.6 °F 24.8 °F 75% 29.94 in 3.0 mi NNW 10.4 mph 19.6 mph 0.00 in Snow Light Snow
12:23 PM 30.2 °F 20.2 °F 21.2 °F 69% 29.94 in 4.0 mi North 12.7 mph 17.3 mph 0.00 in   Haze
12:53 PM 30.0 °F 20.5 °F 19.9 °F 66% 30.00 in 4.0 mi North 11.5 mph - 0.00 in   Haze
1:53 PM 30.0 °F 25.2 °F 18.0 °F 61% 30.02 in 10.0 mi NNW 4.6 mph - N/A   Mostly Cloudy
2:53 PM 30.0 °F 20.5 °F 12.0 °F 47% 30.05 in 10.0 mi WNW 11.5 mph 21.9 mph N/A   Mostly Cloudy
3:53 PM 27.0 °F 14.7 °F 6.1 °F 41% 30.08 in 10.0 mi WNW 16.1 mph 20.7 mph 0.00 in   Clear
4:53 PM 25.0 °F 19.3 °F 3.9 °F 41% 30.08 in 10.0 mi Variable 4.6 mph - N/A   Clear
5:53 PM 24.1 °F 19.7 °F 6.1 °F 46% 30.11 in 10.0 mi North 3.5 mph - N/A   Clear
6:53 PM 19.9 °F 11.1 °F 7.0 °F 57% 30.13 in 10.0 mi NE 6.9 mph - N/A   Clear
7:53 PM 19.0 °F 10.0 °F 5.0 °F 54% 30.15 in 10.0 mi North 6.9 mph - N/A   Clear
8:53 PM 17.1 °F 11.7 °F 5.0 °F 59% 30.12 in 10.0 mi North 3.5 mph - N/A   Clear
9:53 PM 16.0 °F 8.8 °F 1.9 °F 54% 30.12 in 10.0 mi North 4.6 mph - N/A   Clear
10:53 PM 15.1 °F 5.2 °F 3.0 °F 59% 30.11 in 10.0 mi NE 6.9 mph - N/A   Clear
11:53 PM 14.0 °F 1.2 °F -0.9 °F 52% 30.12 in 10.0 mi NE 10.4 mph - N/A   Overcast